User: anonymous   Login
Location: S�tio Afonso Gruber
(26.1760°S, 49.5250°W)
Time: 16:16:46
(UTC+00:00)
Language:

CUBESAT XI-V - Orbit

View from above orbital plane
View from above orbital plane
View from above satellite
View from above satellite

Ground track
Ground track

The orbit data is extracted from the following two-line orbital elements,

1 28895U 05043F   24148.92440205  .00002064  00000-0  37113-3 0  9999
2 28895  98.1990 284.7267 0016707  64.2452 296.0474 14.67636963991710
Epoch (UTC): 27 May 2024 22:11:08
Eccentricity: 0.0016707
inclination: 98.1990°
perigee height: 657 km
apogee height: 680 km
right ascension of ascending node: 284.7267°
argument of perigee: 64.2452°
revolutions per day: 14.67636963
mean anomaly at epoch: 296.0474°
orbit number at epoch: 99171

The dashed part of the orbit path shows where the satellite is in the earth's shadow,  

DLR